RH
96 86 86 78 72 60 64 57 64 54 46 49 50 55 46 39 34 35 33 32 30 27 24 24 24 24 24 23 24 38 38 38 39 54 66 68 71 70 70 77 76 74 74 80
96 86 69 66 66 63 61 62 60 47 44 51 55 56 48 44 42 34 28 28 27 26 26 24 25 26 25 25 26 30 34 35 36 39 46 53 58 60 74 71 75 78 82 83
88 74 68 64 71 74 60 67 56 51 48 43 46 51 50 44 41 37 33 27 25 28 27 26 27 28 28 29 29 29 29 30 32 34 36 39 42 44 50 54 56 61 59 67
86 66 71 69 68 60 69 45 43 55 59 72 42 68 42 41 43 41 34 32 30 29 27 26 27 28 30 28 27 26 25 25 28 30 32 34 36 39 40 42 43 43 42 43
95 81 72 72 64 46 54 45 59 56 63 60 53 58 47 41 50 44 42 32 29 28 27 31 33 33 33 30 28 25 25 27 28 30 29 30 31 31 31 33 35 37 37 37
93 89 84 70 60 47 54 59 64 70 68 82 64 63 62 48 45 41 36 29 26 30 40 43 43 43 39 41 40 33 33 34 32 31 30 28 28 27 28 29 31 30 28 29
97 96 83 84 66 57 57 65 92 90 92 82 58 71 49 40 36 39 45 38 35 39 45 47 48 51 48 49 46 44 44 44 44 42 41 43 42 41 39 37 36 37 34 31
98 99 93 86 76 72 64 59 85 83 98 81 54 71 54 36 31 31 35 35 38 42 46 46 50 51 51 52 51 51 51 50 50 51 51 51 51 53 55 52 52 51 48 49
96 98 88 84 89 78 73 81 56 72 70 86 67 56 38 38 42 42 40 38 38 42 51 51 53 54 53 53 55 57 57 57 57 54 52 55 58 58 61 63 62 58 58 63
83 98 96 86 85 74 72 59 80 91 85 74 62 63 52 43 49 46 47 45 42 48 54 56 57 57 56 57 59 61 62 60 60 59 60 60 64 66 67 67 64 64 64 63
74 80 99 92 97 88 86 95 81 79 79 87 72 58 40 41 45 46 45 44 49 53 53 57 59 60 61 62 65 68 69 69 68 66 66 66 69 72 73 74 76 79 78 79
63 91 100 98 84 72 74 85 66 91 90 84 83 62 36 37 41 41 39 38 35 45 56 59 61 63 64 66 69 72 73 74 75 72 70 69 69 72 75 78 84 89 85 82
60 88 98 98 90 84 96 88 72 68 78 82 78 53 40 38 36 34 33 32 37 54 62 64 65 66 68 71 73 74 76 77 80 79 75 75 78 82 83 81 80 85 81 75
50 75 77 81 70 84 98 89 82 80 92 72 81 51 42 42 40 37 32 39 49 60 64 65 66 69 71 73 74 77 81 86 89 86 84 87 90 93 98 99 98 100 94 91
56 80 72 62 68 71 73 77 80 94 69 83 56 60 44 40 42 39 38 51 62 64 66 66 67 67 68 70 76 80 96 100 99 98 95 93 94 95 93 96 97 99 99 96
70 92 75 75 61 65 70 71 75 78 78 78 61 67 44 34 37 46 52 58 62 63 66 67 67 67 67 68 74 93 100 99 98 97 91 94 91 87 88 85 82 83 85 80
74 88 88 83 68 66 76 70 70 70 64 67 72 48 41 47 43 57 59 60 60 62 64 64 66 65 63 68 78 96 100 100 100 98 91 84 84 81 82 79 77 74 80 83
80 80 88 95 75 89 53 49 51 59 60 56 54 48 41 43 42 40 47 52 58 61 63 64 64 62 64 72 84 88 98 99 99 94 87 84 85 86 87 86 87 90 90 85
66 82 93 94 96 69 56 58 63 67 60 52 56 52 43 43 52 59 55 54 54 58 61 64 63 61 64 72 80 86 98 99 99 100 93 87 90 88 91 98 93 85 80 76
60 60 80 92 94 89 52 50 45 50 74 51 52 54 50 61 71 61 51 57 62 63 61 61 60 60 64 67 73 72 76 91 99 99 100 93 92 97 94 85 81 79 76 49
77 75 88 88 83 74 50 48 50 71 61 59 50 49 48 63 49 40 47 58 61 62 61 64 62 62 64 64 64 66 66 64 75 77 80 93 92 84 79 78 76 39 18 16
74 84 90 85 94 88 51 58 69 59 58 56 52 49 46 46 44 47 57 61 63 60 61 63 63 62 63 64 65 60 57 64 71 76 80 80 79 80 62 37 18 17 17 16
73 67 78 77 74 46 48 53 48 54 55 56 53 48 43 46 52 56 61 65 67 65 63 64 65 62 62 62 61 56 47 54 67 72 70 58 57 39 22 18 17 17 17 17
57 56 64 62 51 54 42 52 51 52 52 53 56 56 55 54 58 58 63 67 69 70 69 68 69 68 65 64 62 59 48 41 39 44 39 32 28 23 19 17 18 18 17 17
65 60 65 68 58 54 49 44 44 52 55 56 59 58 57 56 57 58 60 62 64 71 76 74 72 71 70 69 65 61 52 47 36 32 27 26 24 22 19 17 18 18 18 17
62 69 75 74 51 50 44 42 44 54 53 58 61 61 62 62 62 63 63 63 65 66 69 75 76 76 74 74 72 67 63 55 51 37 27 26 25 23 20 19 19 20 20 19
Wind_Speed
12 11 18 7 5 2 7 5 7 2 5 8 12 4 12 15 6 12 24 17 14 12 11 11 13 17 17 18 17 17 17 18 19 21 21 21 22 21 23 27 25 24 28 29
3 12 6 8 7 3 8 7 5 1 4 7 6 13 8 12 9 13 13 15 15 12 10 10 13 17 19 20 18 17 16 16 15 17 21 24 26 26 27 26 27 27 28 28
4 5 4 8 5 6 1 6 5 4 3 2 4 5 8 9 14 23 21 21 20 17 13 12 13 15 16 16 17 19 20 20 21 21 20 21 22 23 25 26 28 29 28 28
2 3 12 6 10 5 3 5 3 8 5 3 4 4 6 10 14 12 26 25 22 18 14 14 14 13 11 11 13 14 19 21 22 24 26 26 26 27 27 27 29 31 32 32
4 13 14 11 10 6 5 5 8 4 5 4 1 0 6 3 8 13 15 21 20 17 17 17 14 13 11 10 10 11 11 11 12 14 16 18 20 24 27 29 32 34 34 33
2 4 2 3 2 6 6 7 8 5 3 1 6 6 5 6 7 3 7 19 19 21 21 17 12 11 10 10 9 9 11 12 13 15 16 17 18 18 19 20 20 21 22 24
4 2 3 2 6 4 6 7 3 2 1 6 2 4 13 6 6 8 12 22 24 24 22 18 14 12 10 9 10 11 12 14 16 17 19 20 21 22 22 22 22 21 20 19
5 6 1 5 3 4 4 5 5 6 4 4 1 7 6 6 11 18 30 29 25 23 22 18 14 12 11 10 11 12 14 16 17 17 17 18 20 21 22 23 23 22 21 19
4 2 1 3 3 1 4 2 2 5 3 3 4 7 8 2 2 13 22 25 24 23 22 19 15 12 11 11 12 13 14 15 15 16 16 16 16 17 18 19 21 21 20 17
5 4 1 1 2 1 0 2 3 3 3 3 4 5 6 4 7 8 11 20 23 24 21 18 14 12 12 12 13 14 15 15 15 14 14 14 13 14 14 16 16 17 16 15
5 3 3 2 5 7 1 1 3 3 3 4 2 6 5 10 11 13 15 25 25 23 21 18 14 12 12 13 13 14 15 16 15 15 13 13 12 13 14 14 14 13 12 12
2 4 3 3 3 4 2 6 5 3 4 3 3 6 4 7 8 13 17 23 17 23 21 17 14 13 14 14 15 16 17 17 17 16 14 12 12 12 12 14 14 14 14 13
6 1 3 2 1 2 6 5 3 4 3 6 5 5 4 1 7 17 20 15 15 21 20 16 15 14 14 15 16 17 18 19 17 15 12 11 10 10 9 10 13 14 13 11
5 3 5 5 4 5 6 11 8 6 4 4 6 4 4 3 7 11 17 17 19 22 19 16 14 14 14 15 16 19 18 14 11 9 7 6 5 4 3 3 3 2 4 3
4 4 3 1 2 3 3 11 16 13 16 9 11 11 9 9 9 16 19 18 21 19 17 15 13 12 13 15 16 15 8 6 5 4 4 3 2 1 2 3 4 3 2 2
2 1 2 3 2 1 3 6 14 18 13 12 4 7 7 14 11 14 21 22 22 19 16 14 12 12 12 13 12 7 5 5 4 5 5 6 4 4 5 5 5 5 5 5
2 4 3 3 1 2 6 15 13 10 10 16 13 16 3 4 14 21 25 24 22 19 16 13 12 10 9 9 6 6 6 5 6 7 7 6 6 6 6 6 5 4 5 4
4 4 2 2 2 1 6 2 9 17 8 16 8 7 9 9 21 26 27 24 20 17 15 13 11 9 6 4 6 6 7 6 5 7 8 9 9 8 7 7 7 7 7 6
4 4 2 3 3 7 4 3 6 7 9 16 18 10 11 8 15 10 21 19 16 15 12 11 9 7 6 5 6 6 7 6 6 6 6 7 7 8 8 8 9 9 8 8
4 3 3 2 2 4 2 0 3 4 5 3 18 11 8 17 8 4 20 18 16 13 12 11 10 8 7 6 7 6 6 8 8 8 8 9 10 10 10 11 11 10 8 7
3 1 4 4 3 6 6 3 4 2 4 9 11 21 21 8 8 14 11 17 14 13 13 12 11 8 6 6 7 7 7 8 9 10 10 11 12 13 13 11 9 7 6 5
6 5 4 3 3 7 3 2 4 3 3 5 4 20 25 23 11 8 10 17 17 16 16 14 12 10 9 8 8 7 6 8 9 10 11 11 11 10 9 8 7 5 3 3
2 6 4 7 5 5 7 7 8 6 3 2 4 11 23 16 12 12 14 17 17 16 15 14 13 12 11 10 8 8 8 9 10 11 10 10 9 9 8 6 4 2 1 3
3 5 3 2 4 8 11 16 12 9 7 4 4 8 13 13 11 11 13 16 16 16 18 16 17 16 15 13 12 10 10 10 10 11 10 9 9 8 6 5 3 2 2 4
5 1 3 5 5 7 13 12 15 14 11 8 8 8 9 9 10 10 11 13 16 16 15 21 21 18 16 16 15 14 13 12 11 12 11 11 10 9 8 6 5 5 5 6
8 6 4 5 8 10 15 15 18 17 14 11 11 10 9 8 8 10 12 13 16 18 19 22 24 24 21 19 18 18 17 15 14 14 13 13 12 11 9 8 7 7 7 7
Wind_Direction
209 161 194 165 123 121 135 118 154 187 173 179 219 208 239 258 259 232 226 234 234 231 230 221 213 211 223 232 229 216 220 224 226 229 235 241 245 248 250 252 259 260 262 264
191 182 157 129 173 99 138 155 181 69 221 184 203 234 233 247 246 244 226 220 218 220 222 222 213 212 214 223 227 222 224 228 227 228 233 237 242 247 253 254 255 259 262 263
163 140 162 153 174 185 187 165 168 155 92 70 123 284 242 252 244 252 250 238 232 227 217 202 203 211 218 220 223 230 238 244 247 245 243 243 244 247 249 250 253 257 264 264
5 153 176 173 192 142 174 205 189 165 127 195 154 267 250 229 234 230 239 236 231 209 203 200 204 213 216 228 241 251 256 256 252 252 253 254 255 256 258 262 262 264 265 264
202 182 173 183 193 141 206 152 146 121 100 112 190 310 266 241 235 232 216 205 201 201 204 191 197 212 220 227 237 241 242 245 247 250 254 257 261 264 263 263 264 266 265 265
39 46 64 179 85 172 139 87 53 56 90 272 194 166 255 210 217 193 183 196 193 180 170 171 181 197 213 225 233 238 245 251 255 259 263 264 264 265 265 265 267 268 270 267
66 11 344 359 112 60 123 99 39 26 350 227 139 163 244 248 234 184 176 173 167 170 167 171 184 193 215 231 247 255 259 262 262 262 263 265 267 268 270 271 272 274 275 273
158 164 327 353 84 174 165 147 150 185 203 244 156 226 245 243 268 214 178 167 166 171 175 185 191 209 225 243 259 270 275 274 272 270 271 271 270 268 267 268 269 272 274 276
130 46 46 23 353 2 198 137 163 107 53 64 221 288 295 119 121 154 172 175 178 179 179 188 201 215 234 253 266 275 277 279 280 280 279 278 276 272 269 267 269 269 268 267
180 96 13 73 241 76 154 137 68 359 131 251 264 275 240 239 188 164 170 177 179 179 185 196 205 221 238 256 268 275 282 283 280 281 282 283 276 272 272 272 272 272 271 266
132 106 127 105 208 184 111 124 90 112 165 189 303 263 218 214 186 179 175 181 179 185 195 199 209 225 244 258 267 276 281 281 280 278 279 282 280 274 270 270 271 271 269 264
132 112 137 178 211 229 171 203 177 163 225 223 154 277 326 247 183 169 172 181 190 203 198 200 213 233 248 260 268 275 282 283 278 274 275 280 282 279 272 266 264 265 265 266
177 138 112 106 11 273 217 201 172 114 63 208 169 257 344 75 153 183 181 191 196 190 190 198 216 234 251 260 269 278 281 283 274 266 269 276 281 283 282 273 264 261 269 266
144 146 172 187 204 136 192 193 189 170 185 197 219 268 277 214 181 189 196 186 187 186 192 205 221 240 255 268 280 281 284 274 253 256 259 263 279 292 326 354 318 286 241 255
120 171 136 278 136 136 219 192 195 204 214 207 236 246 246 216 202 189 188 182 180 189 202 220 237 253 269 279 280 280 272 252 239 217 210 193 177 142 103 82 57 95 116 143
22 148 88 325 274 171 271 234 209 214 223 245 242 260 234 204 207 191 186 184 192 202 213 226 241 251 265 277 274 251 223 220 185 191 188 166 156 151 125 109 91 63 96 110
102 123 81 265 358 355 299 230 210 219 216 210 210 225 235 207 193 192 188 197 204 212 219 229 237 251 265 272 248 211 197 193 191 197 180 167 166 156 155 142 134 136 130 113
127 101 93 206 34 287 242 238 216 215 225 218 239 191 205 212 202 200 199 205 212 216 219 222 228 238 244 228 196 189 185 182 184 186 183 178 186 178 163 158 153 130 107 100
130 121 121 143 200 283 274 194 169 172 254 220 219 209 212 212 182 202 206 214 224 219 218 213 214 221 217 194 179 172 167 156 175 182 178 180 174 169 155 140 124 115 103 98
153 93 129 173 206 250 276 325 208 150 283 268 209 195 167 162 182 219 203 206 206 206 209 207 203 204 205 180 157 144 142 140 146 151 164 161 155 150 140 127 119 111 104 97
151 159 216 244 275 286 258 221 147 138 258 316 224 199 179 187 198 206 211 201 203 204 200 197 198 198 191 170 151 149 140 127 131 135 139 144 138 133 130 129 127 118 113 96
170 169 195 176 228 273 207 118 194 243 312 328 306 195 187 190 196 200 198 193 195 198 198 200 202 199 192 185 174 168 153 153 152 151 150 143 141 149 143 138 132 126 103 63
213 188 183 185 214 250 240 243 267 254 294 327 125 176 183 183 185 188 193 198 203 207 207 205 207 207 202 198 193 191 178 178 173 171 166 159 166 166 157 156 147 126 22 351
282 181 221 128 257 241 258 243 257 244 249 244 201 167 173 180 186 194 201 207 210 219 221 218 214 214 212 207 204 197 196 189 185 186 184 185 192 194 188 190 199 227 288 313
223 139 225 256 299 281 271 251 241 239 239 227 193 185 181 184 190 203 214 220 227 224 227 232 230 227 224 221 210 212 208 203 201 203 204 206 210 212 213 216 232 258 276 292
228 223 192 234 265 249 258 268 236 221 218 205 194 191 201 212 220 229 234 238 241 242 239 235 236 235 232 229 228 221 216 215 213 216 218 218 221 224 227 233 241 254 268 288